Helicity
25 18 8 9 18 23 28 27 28 20 10 7 10 16 16 -18 -2 82 75 80 38 18 -17 -9 14 27 30 37 41 28 55 67 60 53 88 109 87 93 95 112 141 80 155 166 216
25 20 12 10 6 10 14 19 25 21 15 5 14 12 -15 -13 17 99 78 94 57 4 20 46 43 39 59 53 43 45 49 57 63 57 73 123 102 117 136 213 184 243 247 206 218
19 13 8 -0 1 7 11 17 29 30 24 40 34 10 -7 5 28 92 169 135 45 -3 11 10 13 36 70 69 82 68 80 66 98 78 49 63 187 180 108 187 273 295 284 217 196
30 21 15 14 11 15 17 17 23 30 44 39 7 -2 31 -9 51 82 125 71 -20 -24 2 44 44 65 87 96 77 77 110 137 111 133 92 117 128 181 273 155 181 221 222 161 182
42 43 43 40 38 39 26 9 1 8 38 116 49 21 40 68 92 69 71 -2 -9 -0 65 45 92 42 63 56 70 133 141 180 173 160 230 282 292 204 326 304 237 206 223 226 201
56 57 56 48 38 31 22 8 -31 -25 -5 6 9 -9 123 157 49 52 32 -0 40 38 105 85 11 17 54 38 93 88 153 243 240 198 168 177 259 188 338 296 287 300 274 238 226
67 58 53 47 36 15 -39 -44 -40 -34 -20 -18 -1 22 173 69 27 49 42 17 53 88 104 40 116 134 8 45 103 94 168 203 320 280 166 117 208 282 245 239 245 296 336 327 275
65 58 58 49 16 -34 -31 -28 -9 -0 10 13 1 -4 -12 34 -2 169 109 5 176 155 162 190 127 107 80 24 101 150 172 170 147 196 150 139 185 202 179 200 236 226 255 317 348
67 69 60 24 -21 -23 -16 -19 -4 12 26 -5 2 2 3 -31 75 68 51 5 26 106 187 120 106 43 137 72 120 161 101 126 80 102 59 107 108 188 163 163 174 174 189 201 260
59 58 45 8 -12 -25 7 56 31 5 -11 -3 8 13 15 29 54 35 52 85 46 47 82 129 87 65 93 84 33 31 21 57 69 72 39 42 70 143 191 189 204 206 153 137 198
49 34 -14 41 -6 -33 -24 15 34 51 109 -10 -30 -24 14 7 1 79 41 85 83 109 -21 39 41 21 31 53 68 60 50 61 72 58 177 161 235 259 198 239 252 230 228 199 212
57 30 -28 -7 24 14 19 55 41 15 23 -24 -31 -33 23 15 6 141 31 -9 -13 10 -5 21 15 32 56 121 111 74 67 69 45 86 165 79 119 160 207 161 198 312 348 331 273
58 39 -3 -2 24 85 83 81 48 16 -18 1 7 2 46 35 -8 26 28 -0 25 41 93 55 27 40 66 21 28 -48 -86 -11 -31 37 23 20 72 191 228 226 203 226 292 346 337
51 33 20 10 29 21 33 41 23 16 -4 5 14 22 30 100 67 57 47 -8 41 32 56 99 26 56 24 61 25 -74 7 4 -18 36 41 102 68 194 164 217 282 374 368 342 371
42 28 7 19 38 15 11 11 15 -2 32 22 44 59 41 75 35 64 46 78 100 71 8 51 58 29 18 -5 28 78 20 -19 -12 -4 -1 65 69 168 92 123 145 245 313 276 219
12 29 11 11 15 18 17 13 9 11 33 44 68 78 66 71 40 12 75 46 25 81 93 32 33 58 56 63 58 69 33 23 28 1 52 74 119 194 204 119 197 217 171 195 182
-13 5 8 18 20 19 16 5 14 32 26 51 73 66 90 75 94 72 56 71 5 38 63 18 141 85 124 110 59 48 46 15 34 34 37 106 207 63 69 62 73 110 157 160 109
14 8 -8 2 25 22 13 16 19 42 40 47 53 77 90 70 131 107 118 69 63 46 112 129 204 155 100 123 80 61 39 63 47 26 68 62 99 24 8 38 33 49 78 85 99
36 14 8 62 21 12 12 7 45 42 40 39 58 82 78 94 120 152 119 104 98 90 135 160 205 112 94 83 44 70 74 29 63 54 40 34 2 -0 17 45 68 53 55 80 72
27 15 25 61 17 2 12 33 27 16 27 42 85 85 103 90 120 124 121 135 129 141 110 196 190 158 127 69 39 31 20 35 21 39 43 51 22 -12 20 33 24 40 44 38 19
10 8 39 23 6 -1 22 24 9 12 36 49 83 103 106 118 131 136 134 158 139 158 178 189 224 160 111 143 122 60 36 17 39 19 25 12 5 -31 -17 -25 -13 -17 -7 -2 2
10 3 33 8 -6 26 23 24 13 24 34 55 78 90 113 136 149 156 168 184 175 171 202 205 282 224 138 169 94 79 45 19 21 27 26 35 26 -23 -43 -47 -41 -17 -13 -4 1
4 5 43 2 18 35 14 13 20 27 37 66 92 82 98 134 161 176 176 171 185 201 218 217 303 313 235 204 170 134 60 38 52 56 27 12 30 26 -7 -18 -32 -22 12 42 26
5 -0 41 64 48 20 20 25 46 42 71 78 95 95 122 145 156 181 180 180 154 206 217 223 266 261 237 163 241 238 149 79 51 58 31 22 18 27 26 31 13 15 -0 11 39
17 3 10 4 22 29 23 35 61 79 71 81 114 117 133 151 155 190 182 164 200 195 246 252 265 264 203 139 221 267 228 134 98 72 70 41 67 56 64 87 86 40 -2 -11 34
16 16 20 33 13 25 22 42 68 73 94 108 137 123 127 154 159 190 209 182 188 219 265 252 281 254 147 144 243 195 186 192 134 115 100 82 75 69 83 93 91 47 -10 -11 2
12 6 20 2 19 31 44 58 75 100 89 108 130 131 136 138 150 149 169 154 175 202 230 253 279 245 247 240 202 141 144 203 159 153 144 136 70 97 68 71 62 65 62 -23 -18
Wind_Speed
31 32 33 34 35 36 36 33 32 30 30 33 34 35 38 36 49 63 59 61 58 53 48 44 42 39 36 36 37 34 39 41 39 38 42 46 39 38 34 32 32 31 37 48 52
27 25 24 25 29 31 32 30 29 28 29 32 34 39 41 33 39 62 62 60 56 53 45 47 46 42 39 38 39 38 41 40 38 40 37 40 37 39 37 39 42 45 47 49 48
25 23 21 19 18 18 20 24 27 30 32 35 39 44 45 35 42 60 66 61 56 51 43 43 42 41 41 41 43 40 42 40 42 44 34 32 39 40 39 43 48 55 57 54 50
28 24 19 15 15 16 20 24 28 31 36 41 44 42 50 46 44 64 66 65 57 47 45 49 46 43 43 43 45 41 41 48 48 48 35 40 34 37 39 42 50 52 53 53 52
26 20 16 14 14 14 18 24 29 31 36 46 51 44 44 55 61 66 66 65 50 46 52 46 53 44 44 45 43 41 46 46 43 39 38 34 38 35 46 50 52 53 54 55 54
19 13 12 14 15 16 17 22 36 41 40 43 52 59 55 59 67 67 65 61 56 50 54 56 50 44 46 45 48 47 38 43 48 43 44 43 47 45 58 56 55 56 57 58 58
13 14 15 16 16 17 41 43 43 42 42 43 42 42 68 62 66 70 62 63 57 53 51 49 59 56 46 43 52 43 41 45 58 59 50 48 56 58 61 59 58 59 60 61 61
16 18 19 19 26 44 44 45 48 48 45 44 46 49 50 67 66 72 68 56 63 57 56 59 58 62 57 49 49 55 49 64 61 64 59 61 67 61 60 60 62 62 63 64 65
22 25 30 36 45 45 44 43 44 51 56 51 47 41 51 65 70 66 71 56 48 54 66 57 58 65 72 60 59 64 71 76 73 68 71 65 66 63 60 62 65 65 66 67 69
31 33 41 44 45 44 43 48 54 46 39 42 62 43 60 59 72 71 70 71 57 49 50 67 61 69 81 81 80 84 81 81 87 81 76 67 63 62 63 63 66 68 68 68 70
35 38 50 50 44 42 36 36 39 51 65 61 58 53 52 52 64 74 68 71 66 64 63 69 78 83 78 77 71 76 87 98 87 73 80 67 66 65 64 65 69 69 70 69 70
41 44 45 46 54 37 35 37 36 39 53 59 64 60 53 52 67 77 73 59 74 79 61 68 82 73 73 78 82 88 94 94 80 74 84 72 78 68 63 65 66 69 70 71 70
45 49 48 41 41 50 43 40 38 39 43 49 53 64 50 59 70 80 73 58 74 82 80 78 68 73 80 84 96 93 89 94 93 84 67 68 62 64 64 62 63 62 64 65 67
51 53 55 36 42 39 42 37 37 36 42 36 37 41 23 42 58 73 60 56 62 73 67 70 67 82 85 91 92 91 88 84 78 66 63 53 60 58 60 61 62 64 65 65 66
52 56 51 48 41 41 37 35 37 35 44 20 39 36 60 61 40 78 58 65 70 75 64 68 75 81 89 89 78 76 83 74 57 45 45 50 41 51 51 57 60 62 62 63 64
54 55 43 42 45 40 34 39 36 41 47 37 37 43 56 62 57 51 75 58 57 63 73 65 65 68 82 76 65 70 76 51 45 39 51 58 33 51 60 60 63 61 59 59 61
45 56 52 40 35 30 39 38 42 51 31 36 32 34 47 52 56 57 68 87 80 79 84 69 72 64 82 79 67 83 75 55 49 47 50 46 39 48 56 57 58 61 61 61 61
34 42 49 48 31 38 38 40 51 41 40 31 31 35 44 51 52 64 59 71 78 73 73 86 84 80 74 65 66 68 59 52 43 50 44 41 35 40 54 57 57 54 57 61 63
34 35 14 12 28 35 39 49 44 39 32 28 33 42 44 49 50 56 64 65 69 74 76 79 75 61 65 55 64 62 68 39 32 29 33 36 39 27 59 59 58 58 58 60 62
35 35 11 15 30 37 43 47 41 35 33 35 43 41 48 52 55 56 62 57 62 63 59 67 75 65 62 54 52 55 48 55 44 40 34 31 31 43 62 66 64 64 63 63 62
36 38 14 23 31 31 46 44 41 34 34 39 40 43 46 52 51 55 58 54 55 60 58 63 67 75 61 66 64 60 53 49 35 38 35 29 25 43 59 66 68 69 68 68 67
37 37 18 32 35 40 44 43 40 37 40 39 41 42 46 48 50 53 56 54 51 55 63 59 60 77 64 53 48 53 48 45 44 37 33 29 26 48 59 65 67 70 69 70 69
37 38 19 32 41 45 43 41 39 34 36 37 40 42 45 49 50 49 51 44 49 53 60 59 67 79 70 57 52 52 46 41 32 32 33 32 31 47 61 67 69 71 71 70 69
33 35 23 31 42 45 43 38 37 36 38 40 40 40 44 47 49 47 50 46 45 45 50 52 59 64 70 60 52 53 44 40 40 38 31 25 19 27 45 60 72 74 73 71 71
28 34 30 37 35 40 37 36 36 34 35 36 40 43 45 49 49 49 48 48 45 44 47 53 61 56 51 48 44 44 42 37 38 31 32 23 18 14 23 35 40 66 76 72 72
29 32 33 37 36 36 33 33 33 33 33 35 40 40 41 47 47 49 47 46 48 46 50 49 59 57 59 54 46 46 40 34 29 28 22 18 17 13 21 26 26 18 66 72 73
26 30 32 32 33 31 30 31 31 33 33 34 37 40 40 40 38 35 31 32 36 44 50 51 56 62 67 61 53 60 48 40 35 28 26 29 20 17 16 20 21 22 20 64 75
Wind_Direction
326 329 334 342 347 352 354 355 358 358 350 329 308 302 310 351 7 359 351 335 334 312 350 360 4 6 8 4 359 360 333 326 325 321 315 317 312 316 322 316 329 325 318 305 305
318 316 316 323 334 340 342 345 347 342 328 306 308 322 339 4 358 351 334 322 319 333 1 356 354 0 355 352 349 346 334 332 335 328 326 330 318 311 310 308 303 301 314 316 316
310 306 300 297 299 301 311 328 339 344 335 328 334 342 2 25 2 334 324 321 324 347 11 8 6 3 352 348 342 343 332 334 332 329 331 329 332 319 303 305 304 297 302 310 313
313 306 290 265 268 284 314 332 346 348 344 339 347 10 15 23 353 332 320 325 347 6 8 1 358 351 346 342 340 337 341 331 327 328 328 319 326 326 326 307 306 304 306 310 312
311 300 281 259 239 252 289 318 334 339 350 3 9 25 17 14 356 324 328 347 5 10 1 3 355 355 348 345 345 342 333 340 339 342 343 337 325 319 317 311 307 306 308 308 310
301 277 261 255 249 252 260 287 351 9 3 10 19 24 16 5 347 337 345 356 2 11 10 12 1 5 354 348 346 339 350 344 337 336 337 320 314 305 312 311 308 306 305 305 306
282 280 274 262 254 267 15 30 26 25 26 23 25 27 18 9 4 354 360 12 17 16 16 16 10 5 356 349 347 346 339 333 332 327 325 315 304 305 308 308 306 304 304 304 305
289 290 287 284 319 30 37 35 29 27 35 35 32 28 30 6 12 1 357 20 22 24 27 21 16 8 357 347 345 338 333 321 324 325 320 316 298 307 311 307 303 304 303 302 303
306 309 317 342 22 34 38 41 42 35 39 34 25 34 20 350 358 352 10 21 29 25 17 15 10 7 357 349 337 336 321 319 316 322 314 311 298 307 311 306 301 302 302 301 301
323 327 343 7 16 29 51 51 29 30 37 36 20 31 15 19 7 9 10 11 25 25 15 9 11 4 356 350 331 325 322 317 312 314 313 307 300 305 309 307 302 300 301 301 301
330 336 21 10 20 27 58 54 41 31 32 39 33 42 34 39 20 360 13 14 22 22 14 11 2 355 353 350 343 332 323 315 316 313 311 304 300 302 306 306 303 301 298 299 301
337 343 42 47 18 47 44 47 65 76 50 46 38 45 46 40 15 353 1 27 18 12 17 10 4 4 358 353 345 337 327 321 320 318 310 300 295 299 306 305 304 301 299 298 300
341 349 22 50 55 32 50 69 98 91 69 60 53 37 45 31 28 0 21 30 21 16 16 13 10 5 359 352 344 340 332 324 316 318 315 305 299 301 306 308 306 305 304 302 301
348 355 8 59 52 67 69 100 106 107 73 72 66 58 37 59 36 31 37 35 27 19 18 15 12 3 358 353 348 343 342 333 326 323 316 325 300 320 316 310 310 306 304 303 305
350 360 29 45 65 67 89 114 108 109 63 94 67 73 43 46 47 24 36 34 27 22 21 13 9 7 3 358 357 354 350 345 344 343 337 334 322 329 327 319 320 315 312 308 307
1 358 52 58 62 81 115 113 110 84 65 76 71 53 41 36 39 39 32 38 34 24 23 22 18 14 7 6 9 2 1 10 18 16 346 341 334 332 327 320 318 319 323 319 315
41 28 33 74 95 123 116 116 86 67 100 74 70 62 50 41 37 34 29 24 23 15 15 17 16 16 13 12 15 10 14 13 12 11 360 1 4 355 333 330 328 324 319 323 322
56 55 46 28 112 113 118 98 67 88 80 83 73 65 52 42 38 30 28 24 25 23 19 15 10 16 15 21 17 21 28 27 16 9 10 17 6 2 1 339 329 323 324 329 329
67 76 85 243 134 126 110 75 82 89 91 85 73 54 46 39 36 31 28 26 25 25 22 16 17 21 21 27 27 25 28 33 34 37 31 30 21 9 334 332 327 326 324 327 329
76 97 253 219 132 123 92 83 94 101 92 75 56 50 38 33 32 31 28 30 26 28 30 23 19 23 26 32 34 35 33 31 38 30 22 24 21 1 341 334 325 324 323 324 324
80 78 197 166 135 91 82 90 96 99 88 63 56 48 40 34 34 32 29 31 30 27 31 27 27 22 30 30 30 29 34 38 47 44 34 21 24 353 337 328 328 328 325 324 323
78 67 237 130 114 110 91 91 94 85 72 65 58 51 42 36 35 33 29 31 34 31 27 29 28 21 28 38 41 38 39 38 38 36 40 40 36 345 337 331 327 323 322 325 326
40 82 183 124 91 90 95 89 85 83 72 62 53 48 42 37 33 34 31 35 34 32 30 30 27 22 28 33 36 37 39 41 46 49 46 45 39 3 347 337 331 327 317 315 315
35 62 304 359 104 90 85 83 78 76 67 58 52 49 43 39 36 33 30 34 32 36 37 36 30 29 24 20 26 31 37 42 45 45 45 50 37 27 15 359 342 333 321 312 311
332 47 112 88 75 86 83 81 74 68 67 60 50 45 41 36 33 33 33 30 36 38 36 33 27 28 25 22 29 33 37 42 43 51 46 38 33 17 20 18 17 355 327 315 310
16 58 32 62 85 83 83 77 72 68 65 55 48 45 42 36 33 28 30 33 34 37 32 33 28 27 24 32 36 34 37 42 47 50 41 31 16 43 24 19 17 357 313 316 313
341 28 47 89 82 78 79 77 71 66 62 56 51 43 38 35 33 30 32 34 34 31 30 31 30 26 30 33 38 37 41 46 50 50 41 27 13 29 14 7 3 4 331 307 316